| time (UTC) | temp C | wind direction | speed KPH | gust KPH | rain 1hr cm | rain 24hr cm | rain mn cm | humidity % | barometer mb |
| 20260906131124 | 22 | 54 | 4.8 | 14.5 | 0.00 | 0.00 | 0.00 | 92 | 992.7 |
| 20260906130144 | 22 | 23 | 8.0 | 12.9 | 0.00 | 0.00 | 0.00 | 93 | 992.7 |
| 20260906125123 | 22 | 50 | 6.4 | 14.5 | 0.00 | 0.00 | 0.00 | 95 | 992.5 |
| 20260906124123 | 22 | 45 | 6.4 | 9.7 | 0.00 | 0.00 | 0.00 | 96 | 992.1 |
| 20260906123123 | 22 | 48 | 4.8 | 8.0 | 0.00 | 0.00 | 0.00 | 97 | 991.9 |
| 20260906122123 | 22 | 57 | 4.8 | 6.4 | 0.00 | 0.00 | 0.00 | 98 | 991.8 |
| 20260906121123 | 22 | 46 | 4.8 | 9.7 | 0.00 | 0.00 | 0.00 | 98 | 991.5 |
| 20260906120122 | 21 | 51 | 6.4 | 11.3 | 0.00 | 0.00 | 0.00 | 99 | 991.5 |
| 20260906115123 | 21 | 50 | 4.8 | 9.7 | 0.00 | 0.00 | 0.00 | 99 | 991.4 |
| 20260906114123 | 21 | 29 | 4.8 | 9.7 | 0.00 | 0.00 | 0.00 | 99 | 991.2 |
| 20260906113123 | 21 | 45 | 4.8 | 8.0 | 0.00 | 0.00 | 0.00 | 99 | 990.8 |
| 20260906112123 | 21 | 43 | 4.8 | 9.7 | 0.00 | 0.00 | 0.00 | 99 | 990.8 |
| 20260906111123 | 21 | 37 | 4.8 | 6.4 | 0.00 | 0.00 | 0.00 | 98 | 990.7 |
| 20260906110144 | 21 | 45 | 4.8 | 9.7 | 0.00 | 0.00 | 0.00 | 98 | 990.7 |
| 20260906105124 | 21 | 46 | 4.8 | 8.0 | 0.00 | 0.00 | 0.00 | 98 | 990.7 |
| 20260906104123 | 21 | 44 | 6.4 | 11.3 | 0.00 | 0.00 | 0.00 | 98 | 990.5 |
| 20260906103123 | 21 | 48 | 4.8 | 9.7 | 0.00 | 0.00 | 0.00 | 98 | 990.4 |
| 20260906102122 | 21 | 53 | 4.8 | 8.0 | 0.00 | 0.00 | 0.00 | 98 | 990.2 |
| 20260906101123 | 21 | 40 | 4.8 | 8.0 | 0.00 | 0.00 | 0.00 | 98 | 990.2 |
| 20260906100144 | 21 | 51 | 4.8 | 8.0 | 0.00 | 0.00 | 0.00 | 97 | 990.2 |
| 20260906095124 | 21 | 68 | 6.4 | 9.7 | 0.00 | 0.00 | 0.00 | 97 | 990.2 |
| 20260906094124 | 21 | 64 | 4.8 | 8.0 | 0.00 | 0.00 | 0.00 | 97 | 990.2 |
| 20260906093122 | 21 | 67 | 4.8 | 8.0 | 0.00 | 0.00 | 0.00 | 97 | 990.2 |
| 20260906092122 | 21 | 46 | 4.8 | 8.0 | 0.00 | 0.00 | 0.00 | 97 | 990.1 |
| 20260906091124 | 21 | 43 | 4.8 | 11.3 | 0.00 | 0.00 | 0.00 | 97 | 990.2 |
| 20260906090124 | 21 | 38 | 4.8 | 8.0 | 0.00 | 0.00 | 0.00 | 97 | 990.2 |
| 20260906085122 | 21 | 34 | 3.2 | 8.0 | 0.00 | 0.00 | 0.00 | 97 | 990.2 |
| 20260906084123 | 21 | 29 | 4.8 | 6.4 | 0.00 | 0.00 | 0.00 | 97 | 990.4 |
| 20260906083143 | 21 | 54 | 3.2 | 6.4 | 0.00 | 0.00 | 0.00 | 97 | 990.4 |
| 20260906082143 | 21 | 49 | 4.8 | 8.0 | 0.00 | 0.00 | 0.00 | 97 | 990.5 |
| 20260906081124 | 21 | 50 | 4.8 | 6.4 | 0.00 | 0.00 | 0.00 | 97 | 990.2 |
| 20260906080122 | 21 | 36 | 4.8 | 9.7 | 0.00 | 0.00 | 0.00 | 97 | 990.2 |
| 20260906075144 | 21 | 32 | 3.2 | 6.4 | 0.00 | 0.00 | 0.00 | 97 | 990.4 |
| 20260906074123 | 21 | 55 | 3.2 | 6.4 | 0.00 | 0.00 | 0.00 | 97 | 990.5 |
| 20260906073122 | 21 | 42 | 3.2 | 6.4 | 0.00 | 0.00 | 0.00 | 97 | 990.6 |
| 20260906072122 | 21 | 30 | 1.6 | 6.4 | 0.00 | 0.00 | 0.00 | 97 | 990.7 |
| 20260906071122 | 21 | 59 | 3.2 | 6.4 | 0.00 | 0.00 | 0.00 | 98 | 990.6 |
| 20260906070122 | 21 | 45 | 1.6 | 6.4 | 0.00 | 0.00 | 0.00 | 98 | 990.6 |
| 20260906065123 | 21 | 46 | 1.6 | 4.8 | 0.00 | 0.00 | 0.00 | 98 | 990.6 |
| 20260906064144 | 21 | 41 | 4.8 | 6.4 | 0.00 | 0.00 | 0.00 | 97 | 990.5 |
| 20260906063144 | 21 | 40 | 4.8 | 9.7 | 0.00 | 0.00 | 0.00 | 97 | 990.7 |
| 20260906062144 | 21 | 39 | 4.8 | 6.4 | 0.00 | 0.00 | 0.00 | 97 | 990.9 |
| 20260906061143 | 21 | 28 | 3.2 | 8.0 | 0.00 | 0.00 | 0.00 | 97 | 990.8 |
| 20260906060143 | 21 | 48 | 3.2 | 8.0 | 0.00 | 0.00 | 0.00 | 97 | 990.8 |
| 20260906055123 | 21 | 39 | 3.2 | 9.7 | 0.00 | 0.00 | 0.00 | 97 | 990.9 |
| 20260906054122 | 21 | 57 | 4.8 | 8.0 | 0.00 | 0.00 | 0.00 | 97 | 990.8 |
| 20260906053122 | 21 | 48 | 4.8 | 8.0 | 0.00 | 0.00 | 0.00 | 97 | 990.8 |
| 20260906052122 | 21 | 54 | 4.8 | 9.7 | 0.00 | 0.00 | 0.00 | 97 | 990.6 |
| 20260906051122 | 21 | 51 | 4.8 | 8.0 | 0.00 | 0.00 | 0.00 | 97 | 990.4 |
| 20260906050122 | 22 | 39 | 4.8 | 8.0 | 0.00 | 0.00 | 0.00 | 96 | 990.4 |
| 20260906045143 | 22 | 48 | 6.4 | 9.7 | 0.00 | 0.00 | 0.00 | 96 | 990.2 |
| 20260906044122 | 22 | 34 | 4.8 | 8.0 | 0.00 | 0.00 | 0.00 | 96 | 990.0 |
| 20260906043122 | 22 | 39 | 4.8 | 9.7 | 0.00 | 0.00 | 0.00 | 96 | 989.7 |
| 20260906042123 | 22 | 45 | 4.8 | 8.0 | 0.00 | 0.00 | 0.00 | 95 | 989.7 |
| 20260906041122 | 22 | 52 | 4.8 | 9.7 | 0.00 | 0.00 | 0.00 | 95 | 989.6 |
| 20260906040143 | 22 | 36 | 4.8 | 9.7 | 0.00 | 0.00 | 0.00 | 95 | 989.6 |
| 20260906035144 | 22 | 36 | 4.8 | 6.4 | 0.00 | 0.00 | 0.00 | 95 | 989.5 |
| 20260906034144 | 22 | 27 | 3.2 | 8.0 | 0.00 | 0.00 | 0.00 | 95 | 989.5 |
| 20260906033122 | 22 | 27 | 3.2 | 8.0 | 0.00 | 0.00 | 0.00 | 95 | 989.2 |
| 20260906032123 | 23 | 32 | 4.8 | 8.0 | 0.00 | 0.00 | 0.00 | 95 | 989.2 |
| 20260906031122 | 23 | 59 | 4.8 | 8.0 | 0.00 | 0.00 | 0.00 | 95 | 989.2 |
| 20260906030122 | 23 | 65 | 3.2 | 8.0 | 0.00 | 0.00 | 0.00 | 94 | 989.2 |
| 20260906025124 | 23 | 44 | 3.2 | 9.7 | 0.00 | 0.00 | 0.00 | 93 | 989.2 |
| 20260906024123 | 23 | 55 | 4.8 | 8.0 | 0.00 | 0.00 | 0.00 | 93 | 989.1 |
| 20260906023122 | 23 | 32 | 4.8 | 9.7 | 0.00 | 0.00 | 0.00 | 92 | 989.1 |
| 20260906022123 | 24 | 32 | 4.8 | 8.0 | 0.00 | 0.00 | 0.00 | 92 | 989.0 |
| 20260906021122 | 24 | 41 | 3.2 | 6.4 | 0.00 | 0.00 | 0.00 | 91 | 989.0 |
| 20260906020123 | 25 | 31 | 3.2 | 6.4 | 0.00 | 0.00 | 0.00 | 91 | 989.0 |
| 20260906015123 | 25 | 46 | 3.2 | 8.0 | 0.00 | 0.00 | 0.00 | 90 | 988.9 |
| 20260906014122 | 25 | 19 | 3.2 | 6.4 | 0.00 | 0.00 | 0.00 | 90 | 988.7 |
| 20260906013122 | 25 | 38 | 3.2 | 6.4 | 0.00 | 0.00 | 0.00 | 89 | 988.6 |
| 20260906012122 | 25 | 45 | 4.8 | 8.0 | 0.00 | 0.00 | 0.00 | 89 | 988.6 |
| 20260906011122 | 26 | 47 | 6.4 | 11.3 | 0.00 | 0.00 | 0.00 | 88 | 988.2 |
| 20260906010143 | 26 | 38 | 6.4 | 11.3 | 0.00 | 0.00 | 0.00 | 87 | 988.2 |
| 20260906005122 | 26 | 36 | 6.4 | 8.0 | 0.00 | 0.00 | 0.00 | 85 | 988.2 |
| 20260906004122 | 27 | 42 | 8.0 | 12.9 | 0.00 | 0.00 | 0.00 | 84 | 988.0 |
| 20260906003122 | 27 | 50 | 6.4 | 11.3 | 0.00 | 0.00 | 0.00 | 82 | 988.0 |
| 20260906002143 | 28 | 22 | 6.4 | 11.3 | 0.00 | 0.00 | 0.00 | 81 | 988.0 |
| 20260906001123 | 28 | 23 | 6.4 | 11.3 | 0.00 | 0.00 | 0.00 | 79 | 987.9 |
| 20260906000122 | 28 | 26 | 6.4 | 9.7 | 0.00 | 0.00 | 0.00 | 79 | 987.9 |
| 20260905235122 | 29 | 18 | 6.4 | 9.7 | 0.00 | 0.00 | 0.00 | 78 | 988.0 |
| 20260905234143 | 29 | 33 | 6.4 | 11.3 | 0.00 | 0.00 | 0.00 | 78 | 987.8 |
| 20260905233143 | 30 | 49 | 8.0 | 11.3 | 0.00 | 0.00 | 0.00 | 77 | 987.5 |
| 20260905232123 | 30 | 39 | 8.0 | 14.5 | 0.00 | 0.00 | 0.00 | 76 | 987.4 |
| 20260905231122 | 30 | 51 | 8.0 | 12.9 | 0.00 | 0.00 | 0.00 | 75 | 987.2 |
| 20260905230122 | 31 | 39 | 8.0 | 16.1 | 0.00 | 0.00 | 0.00 | 75 | 987.2 |
| 20260905225122 | 31 | 43 | 8.0 | 12.9 | 0.00 | 0.00 | 0.00 | 74 | 987.6 |
| 20260905224123 | 32 | 45 | 8.0 | 12.9 | 0.00 | 0.00 | 0.00 | 72 | 987.4 |
| 20260905223143 | 32 | 60 | 6.4 | 12.9 | 0.00 | 0.00 | 0.00 | 69 | 987.4 |
| 20260905222122 | 32 | 24 | 6.4 | 11.3 | 0.00 | 0.00 | 0.00 | 69 | 987.4 |
| 20260905221144 | 33 | 42 | 4.8 | 9.7 | 0.00 | 0.00 | 0.00 | 66 | 987.2 |
| 20260905220122 | 33 | 39 | 6.4 | 11.3 | 0.00 | 0.00 | 0.00 | 65 | 987.2 |
| 20260905215122 | 33 | 24 | 6.4 | 11.3 | 0.00 | 0.00 | 0.00 | 65 | 987.2 |
| 20260905214144 | 34 | 43 | 4.8 | 8.0 | 0.00 | 0.00 | 0.00 | 63 | 987.2 |
| 20260905213122 | 35 | 77 | 3.2 | 8.0 | 0.00 | 0.00 | 0.00 | 63 | 987.1 |
| 20260905212123 | 35 | 15 | 4.8 | 9.7 | 0.00 | 0.00 | 0.00 | 63 | 987.1 |
| 20260905211123 | 35 | 41 | 6.4 | 11.3 | 0.00 | 0.00 | 0.00 | 63 | 987.1 |
| 20260905210122 | 35 | 37 | 6.4 | 11.3 | 0.00 | 0.00 | 0.00 | 63 | 987.1 |
| 20260905205122 | 35 | 45 | 4.8 | 8.0 | 0.00 | 0.00 | 0.00 | 63 | 987.2 |
| 20260905204123 | 34 | 41 | 6.4 | 12.9 | 0.00 | 0.00 | 0.00 | 64 | 987.2 |
| 20260905203122 | 35 | 54 | 6.4 | 11.3 | 0.00 | 0.00 | 0.00 | 63 | 987.5 |
| 20260905202122 | 35 | 123 | 4.8 | 9.7 | 0.00 | 0.00 | 0.00 | 63 | 987.5 |
| 20260905201123 | 34 | 33 | 4.8 | 8.0 | 0.00 | 0.00 | 0.00 | 65 | 987.6 |
| 20260905200122 | 34 | 42 | 4.8 | 11.3 | 0.00 | 0.00 | 0.00 | 64 | 987.6 |
| 20260905195122 | 34 | 57 | 3.2 | 8.0 | 0.00 | 0.00 | 0.00 | 65 | 987.5 |
| 20260905194123 | 33 | 20 | 6.4 | 11.3 | 0.00 | 0.00 | 0.00 | 67 | 987.5 |
| 20260905193143 | 34 | 32 | 4.8 | 6.4 | 0.00 | 0.00 | 0.00 | 67 | 987.7 |
| 20260905192122 | 33 | 6 | 4.8 | 11.3 | 0.00 | 0.00 | 0.00 | 67 | 987.7 |
| 20260905191123 | 33 | 30 | 4.8 | 8.0 | 0.00 | 0.00 | 0.00 | 67 | 987.9 |
| 20260905190143 | 34 | 43 | 4.8 | 9.7 | 0.00 | 0.00 | 0.00 | 65 | 987.9 |
| 20260905185143 | 34 | 13 | 4.8 | 11.3 | 0.00 | 0.00 | 0.00 | 65 | 988.0 |
| 20260905184124 | 34 | 30 | 4.8 | 9.7 | 0.00 | 0.00 | 0.00 | 65 | 988.0 |
| 20260905183122 | 34 | 43 | 6.4 | 9.7 | 0.00 | 0.00 | 0.00 | 65 | 988.1 |
| 20260905182123 | 35 | 62 | 4.8 | 8.0 | 0.00 | 0.00 | 0.00 | 63 | 988.0 |
| 20260905181124 | 35 | 48 | 4.8 | 11.3 | 0.00 | 0.00 | 0.00 | 63 | 988.1 |
| 20260905180123 | 35 | 40 | 6.4 | 9.7 | 0.00 | 0.00 | 0.00 | 63 | 988.1 |
| 20260905175123 | 34 | 60 | 4.8 | 9.7 | 0.00 | 0.00 | 0.00 | 65 | 988.2 |
| 20260905174144 | 35 | 60 | 6.4 | 9.7 | 0.00 | 0.00 | 0.00 | 64 | 988.2 |
| 20260905173123 | 34 | 49 | 4.8 | 9.7 | 0.00 | 0.00 | 0.00 | 67 | 988.2 |
| 20260905172123 | 33 | 46 | 4.8 | 11.3 | 0.00 | 0.00 | 0.00 | 67 | 988.5 |
| 20260905171124 | 33 | 45 | 6.4 | 9.7 | 0.00 | 0.00 | 0.00 | 67 | 988.5 |
| 20260905170123 | 34 | 54 | 4.8 | 11.3 | 0.00 | 0.00 | 0.00 | 67 | 988.5 |
| 20260905165124 | 33 | 56 | 6.4 | 9.7 | 0.00 | 0.00 | 0.00 | 68 | 988.6 |
| 20260905164124 | 33 | 47 | 4.8 | 9.7 | 0.00 | 0.00 | 0.00 | 68 | 988.6 |
| 20260905163123 | 33 | 53 | 3.2 | 8.0 | 0.00 | 0.00 | 0.00 | 69 | 988.7 |
| 20260905162123 | 33 | 58 | 4.8 | 8.0 | 0.00 | 0.00 | 0.00 | 70 | 988.7 |
| 20260905161124 | 32 | 45 | 6.4 | 9.7 | 0.00 | 0.00 | 0.00 | 71 | 988.7 |
| 20260905160124 | 32 | 39 | 6.4 | 12.9 | 0.00 | 0.00 | 0.00 | 70 | 988.7 |
| 20260905155123 | 32 | 33 | 4.8 | 8.0 | 0.00 | 0.00 | 0.00 | 70 | 988.7 |
| 20260905154124 | 32 | 64 | 4.8 | 9.7 | 0.00 | 0.00 | 0.00 | 70 | 988.5 |
| 20260905153144 | 32 | 76 | 3.2 | 6.4 | 0.00 | 0.00 | 0.00 | 70 | 988.4 |
| 20260905152144 | 31 | 41 | 6.4 | 11.3 | 0.00 | 0.00 | 0.00 | 71 | 988.4 |
| 20260905151124 | 31 | 61 | 4.8 | 8.0 | 0.00 | 0.00 | 0.00 | 71 | 988.2 |
| 20260905150124 | 31 | 37 | 4.8 | 11.3 | 0.00 | 0.00 | 0.00 | 70 | 988.2 |
| 20260905145144 | 31 | 59 | 4.8 | 11.3 | 0.00 | 0.00 | 0.00 | 69 | 988.2 |
| 20260905144124 | 31 | 42 | 3.2 | 8.0 | 0.00 | 0.00 | 0.00 | 70 | 988.1 |
| 20260905143124 | 31 | 24 | 3.2 | 9.7 | 0.00 | 0.00 | 0.00 | 72 | 988.1 |
| 20260905142124 | 31 | 40 | 1.6 | 8.0 | 0.00 | 0.00 | 0.00 | 72 | 987.9 |
| 20260905141124 | 31 | 60 | 0.0 | 4.8 | 0.00 | 0.00 | 0.00 | 71 | 988.0 |
| 20260905140123 | 31 | 68 | 1.6 | 4.8 | 0.00 | 0.00 | 0.00 | 72 | 988.0 |
| 20260905135122 | 30 | 91 | 1.6 | 3.2 | 0.00 | 0.00 | 0.00 | 74 | 987.9 |
| 20260905134124 | 29 | 45 | 0.0 | 0.0 | 0.00 | 0.00 | 0.00 | 79 | 987.9 |
| 20260905133123 | 30 | 113 | 0.0 | 3.2 | 0.00 | 0.00 | 0.00 | 78 | 987.9 |
| 20260905132123 | 29 | 175 | 0.0 | 4.8 | 0.00 | 0.00 | 0.00 | 79 | 988.0 |